Regional Weather Roundup
Issued by NWS

Home | Current Version | Previous Version | Text Only | Print | Product List | Glossary Off
Versions: 1 2 3 4 5 6 7 8 9 10 11 12 13 14 15 16 17 18 19 20 21 22 23 24 25 26 27 28 29 30 31 32 33 34 35 36 37 38 39 40 41 42 43 44 45 46 47 48 49 50

972
ASUS45 KCYS 061810
RWRWY

WYOMING REGIONAL WEATHER ROUNDUP
NATIONAL WEATHER SERVICE CHEYENNE WY
1100 AM MST SAT FEB 06 2016

NOTE:  "FAIR" INDICATES FEW OR NO CLOUDS BELOW 12,000 FEET
WITH NO SIGNIFICANT WEATHER AND/OR OBSTRUCTIONS TO VISIBILITY.

WYZ001-061900-
YELLOWSTONE NATIONAL PARK

CITY           SKY/WX    TMP DP  RH WIND       PRES   REMARKS
LK YELLOWSTONE   N/A     22  16  78 W8        30.25F WCI  12
6HR MIN TEMP:  20; 6HR MAX TEMP:  22;

W YELLOWSTONE  NOT AVBL

$$
WYZ002>013-054>058-071-098>099-061900-
NORTHERN WYOMING

CITY           SKY/WX    TMP DP  RH WIND       PRES   REMARKS
JACKSON        SUNNY     30  21  69 S12G17    30.34S WCI  21
CODY           FAIR      46  16  29 W22G39    30.03S
GREYBULL       FAIR      34  18  52 SE10      30.11F WCI  26
6HR MIN TEMP:  17; 6HR MAX TEMP:  34;

WORLAND        FAIR      29  18  63 SE3       30.11F
6HR MIN TEMP:  12; 6HR MAX TEMP:  31;

SHERIDAN       PTSUNNY   52  16  24 NW8       29.90F
6HR MIN TEMP:  24; 6HR MAX TEMP:  51;

BUFFALO        FAIR      45  23  42 NE8       29.94S
6HR MIN TEMP:  28; 6HR MAX TEMP:  48;

GILLETTE       FAIR      38  24  57 SW25G31   29.94F WCI  27
6HR MIN TEMP:  31; 6HR MAX TEMP:  38;

HULETT         FAIR      37  21  52 SW13      29.94F WCI  29
NEWCASTLE      FAIR      34  21  60 S5        30.05R WCI  30

$$
WYZ014>020-022>026-101>103-061900-
CENTRAL WYOMING

CITY           SKY/WX    TMP DP  RH WIND       PRES   REMARKS
BIG PINEY      FAIR      23  15  71 SW6       30.38S WCI  16
6HR MIN TEMP:   3; 6HR MAX TEMP:  23;

PINEDALE       FAIR      27  16  63 CALM      30.37S
DUBOIS         FAIR      36  14  41 NW22G32   30.18F WCI  24
LANDER         FAIR      31  14  49 CALM      30.17F
6HR MIN TEMP:  12; 6HR MAX TEMP:  31;

RIVERTON       FAIR      32  16  51 S7        30.18F WCI  26
6HR MIN TEMP:  12; 6HR MAX TEMP:  32;

CASPER         LGT SNOW  29  20  69 SW39G46   30.16F WCI  12
6HR MIN TEMP:  24; 6HR MAX TEMP:  29; 6HR PCP: TRACE;

DOUGLAS        FAIR      39  23  52 W15         N/A  WCI  31
6HR MIN TEMP:  24; 6HR MAX TEMP:  40;


$$
WYZ021-027>030-104>119-061900-
SOUTHERN WYOMING

CITY           SKY/WX    TMP DP  RH WIND       PRES   REMARKS
EVANSTON       FAIR      19  14  81 SW12      30.44R WCI   7
6HR MIN TEMP:  12; 6HR MAX TEMP:  19;

FORT BRIDGER   CLEAR     32  19  59 W21       30.44S WCI  20
ROCK SPRINGS   FAIR      26  16  65 W26       30.39S WCI  10
6HR MIN TEMP:  18; 6HR MAX TEMP:  26;

DIXON          FAIR      16   7  66 CALM      30.48S
RAWLINS        MIX PCPN  25  16  68 SW38G51   30.30R WCI   6
6HR MIN TEMP:  18; 6HR MAX TEMP:  25; 6HR PCP: TRACE;

SARATOGA       FAIR      30  19  64 SW13G20   30.36R WCI  20
LARAMIE        FAIR      31  15  52 W24G30    30.22S WCI  17
6HR MIN TEMP:  19; 6HR MAX TEMP:  32;

CHEYENNE       FAIR      36  18  48 NW15G25   30.13R WCI  27
6HR MIN TEMP:  29; 6HR MAX TEMP:  37;

TORRINGTON     FAIR      41  21  44 W20G30    30.12F
6HR MIN TEMP:  26; 6HR MAX TEMP:  41;

PINE BLUFFS    FAIR      37  23  56 W12       30.16F WCI  30

$$




USA.gov is the U.S. government's official web portal to all federal, state and local government web resources and services.